STARLINK-32797, 62843

Orbit data source: Space-Track

STARLINK-32797, 62843 is a payload satellite owned by SpaceX/Seattle (US) in LEO that was launched on Mon, 27 Jan 2025 UTC via an FALCON 9 launch vehicle from the Air Force Eastern Test Range (AFETR). Payload-class satellites include a variety of spacecraft equipped with specific instruments for various scientific and technological missions. These include communications satellites like Starlink; space stations such as the ISS; scientific satellites like the Hubble; Earth observation satellites from companies like Planet Labs, Umbra, and HawkEye 360; GPS; miniature CubeSats for education and research; and military/defense satellites.

Loading next visibility...
Identifier
62843, 2025-019Q
Orbit
LEO
Last TLE update
7 hours ago
Origin
Manufacturer
SpaceX/Seattle
Mission
Operational Commercial Communications
Bus & Motor
STARLINK V2M, Unknown motor
Mass
730 kg wet, ~700 kg dry
Launch date (UTC)
2025-01-27 (5 months ago)
Launch vehicle
FALCON 9
Launch site
Air Force Eastern Test Range (AFETR)
Object type
Payload
Rocket body
Debris
Shape & HBR
Box + 2 Pan, 29 m
Radar Cross Section
33.884 m², Large (>1 m²)

Expand to show TLE details & history

TLE from 7 hours ago
0 STARLINK-32797
1 62843U 25019Q   25186.60700280  .00025839  00000-0  94505-3 0  9998
2 62843  43.0002  44.2993 0001250 237.2290 122.8441 15.27584894 24469
Epoch: 2025-07-05T14:34Z
TLE epoch observation values (Epoch: 2025-07-05T14:34:05.041Z)
Latitude
-0.00006°
Longitude
-98.06439°
Altitude
483.275 km
Speed
7.625 km/s
True Right ascension
02h 57m 11s
True Declination
0° 00' 00"
Sunlit
Object was in daylight at epoch
Visualization orbit readout
Latitude
-43.15°
Longitude
168.80253°
Altitude
495.586 km
Speed
7.618 km/s
Apparent Right ascension
21h 20m 27s
Apparent Declination
-41° 46' 02"
Sunlit
Object is in full shadow
Visualization observer readout
Local Sidereal Time
09:57:09
Azimuth
107.905° ESE
Elevation
-82.82°
Doppler factor
1
Orbital elements
Apogee altitude
485.837 km
Perigee altitude
484.122 km
Semi-major axis
6,863.117 km
Eccentricity
0.00013
Inclination
43.0002°
RAAN
44.2993°
Arg. of periapsis
237.229°
True anomaly
Unknown
Mean anomaly
122.8441°
Eccentric anomaly
Unknown
Mean motion
3.81734 °/min
Orbital period
94.31 mins
BSTAR
0.00094505
Loading maneuver chart data...
Loading SW <> Apogee altitude chart data...
Loading historical data...
Loading historical data...
Loading historical data...
Loading historical data...
Loading historical data...
Loading historical data...
Loading historical data...

STARLINK-32797 Visibility forecast

Observer location: undefined°, undefined°

Span
Click to sort rows by Start time (UTC) header in descending order
Start Az.
Max El. time (UTC)
Max El. Az.
Max El.
End time (UTC)
End Az.
7 mins2025-07-05 22:51:02.189Z286.183° WNW2025-07-05 22:54:02.189Z250.106° W43.241°2025-07-05 22:58:02.189Z115.725° SE
4 mins2025-07-06 17:28:02.189Z190.887° SSW2025-07-06 17:29:02.189Z164.69° S27.256°2025-07-06 17:32:02.189Z91.68° ESE
5 mins2025-07-06 19:06:02.189Z263.548° W2025-07-06 19:08:02.189Z310.317° NW43.115°2025-07-06 19:11:02.189Z68.936° E
6 mins2025-07-06 20:45:02.189Z291.875° WNW2025-07-06 20:47:02.189Z336.356° NNW37.008°2025-07-06 20:51:02.189Z80.954° E
|